Regional Weather Roundup
Issued by NWS

Home | Current Version | Previous Version | Graphics & Text | Print | Product List | Glossary On
Versions: 1 2 3 4 5 6 7 8 9 10 11 12 13 14 15 16 17 18 19 20 21 22 23 24 25 26 27 28 29 30 31 32 33 34 35 36 37 38 39 40 41 42 43 44 45 46 47 48 49 50
000
ASUS43 KMKX 220710
RWRWI

WISCONSIN REGIONAL WEATHER ROUNDUP
NATIONAL WEATHER SERVICE MILWAUKEE/SULLIVAN WI
100 AM CST SUN JAN 22 2017

NOTE: "FAIR" INDICATES FEW OR NO CLOUDS BELOW 12,000 FEET WITH NO
SIGNIFICANT WEATHER AND/OR OBSTRUCTIONS TO VISIBILITY.

WIZ001-002-006>008-014>016-023>028-220800-
NORTHWEST WISCONSIN

CITY           SKY/WX    TMP DP  RH WIND       PRES   REMARKS
SUPERIOR ARPT  CLOUDY    35  35 100 N5        29.57R FOG     WCI  31
ASHLAND        FOG       34  33  96 W3        29.54S VSB 1/2
HAYWARD        FOG       34  33  96 CALM      29.53R VSB 1/2
SIREN          CLOUDY    34  34  99 CALM      29.55S FOG
CUMBERLAND     FOG       32  32 100 NW3       29.53S VSB 1/2
RICE LAKE      CLOUDY    34  34 100 CALM      29.54S FOG
CHETEK         CLOUDY    34  34 100 CALM      29.53S FOG
LADYSMITH      FOG       35  34  99 CALM      29.53S VSB 1/2
EAU CLAIRE     LGT RAIN  34  32  92 S3        29.53S VSB 1/2
MENOMONIE        N/A    N/A N/A N/A MISG        N/A
NEW RICHMOND   FOG       34  34 100 CALM      29.55R VSB 1/2
OSCEOLA        FOG       34  34 100 NW3       29.58R VSB 1/2
$$

WIZ003>005-009-010-017-018-220800-
NORTH CENTRAL WISCONSIN

CITY           SKY/WX    TMP DP  RH WIND       PRES   REMARKS
MANITOWISH WTR FOG       33  33 100 CALM      29.50R VSB 1/4
ARBOR VITAE    FOG       37  36  97 CALM      29.50S VSB 1/2
WOODRUFF       FOG       37  36  97 CALM      29.50S VSB 1/2
RHINELANDER    FOG       36  36 100 CALM      29.51R VSB 1/2
EAGLE RIVER    SNOW      33  33 100 CALM      29.50S VSB 1/4
LAND O LAKES   FOG       34  34 100 CALM      29.52R VSB 1/4
PHILLIPS       FOG       33  33 100 CALM      29.50S VSB 1/4
TOMAHAWK       FOG       33  33  98 CALM      29.51S VSB 3/4
MEDFORD        FOG       33  33 100 S3        29.51R VSB 1/4
MERRILL        FOG       34  34 100 CALM        N/A  VSB 1/2
$$

WIZ029-030-035-036-043>047-220800-
CENTRAL WISCONSIN

CITY           SKY/WX    TMP DP  RH WIND       PRES   REMARKS
WAUSAU         FOG       35  35 100 CALM      29.51S VSB 1/4
MOSINEE        SNOW      34  34 100 S3        29.53S VSB 1/4
MARSHFIELD     FOG       36  32  85 SW5       29.51S VSB 1/4 WCI  32
STEVENS POINT  FOG       35  35 100 CALM      29.54S VSB 1/4
WAUPACA        FOG       37  37  97 CALM      29.55S VSB 1/4
WAUTOMA        FOG       39  37  93 SW3       29.55F VSB 1/2
WISC RAPIDS    FOG       38  38 100 SW7       29.54S VSB 1/4 WCI  33
CAMP DOUGLAS   PTCLDY    37  37  99 S6        29.54R WCI  32
$$

WIZ011>013-019>022-031-037>040-048>050-220800-
NORTHEAST WISCONSIN

CITY           SKY/WX    TMP DP  RH WIND       PRES   REMARKS
ANTIGO         FOG       33  33 100 S3        29.52S VSB 1/4
SHAWANO        FOG       36  35  96 CALM      29.55R VSB 1/2
OCONTO         CLOUDY    35  35 100 CALM      29.56S VSB 1
STURGEON BAY   CLOUDY    38  37  97 SW6       29.57R FOG     WCI  33
GREEN BAY      FOG       37  37 100 CALM      29.55S VSB 1/4
MANITOWOC      FOG       37  36  96 MISG      29.57S VSB 1/4
APPLETON       FOG       36  36 100 SW7       29.54S VSB 1/2 WCI  30
CLINTONVILLE   FOG       34  34 100 CALM      29.55S VSB 1/2
OSHKOSH        FOG       38  38 100 S6        29.55S VSB 1/2 WCI  33
$$

WIZ032>034-041-042-053>061-220800-
SOUTHWEST WISCONSIN

CITY           SKY/WX    TMP DP  RH WIND       PRES   REMARKS
LA CROSSE      CLOUDY    40  36  86 E5        29.55S FOG
SPARTA         CLOUDY    37  37 100 CALM      29.56R FOG
VIROQUA        CLOUDY    37  37 100 SW6       29.54S WCI  32
BOSCOBEL       FOG       37  36  96 CALM      29.57S VSB 3/4
PRAIRIE DU CHI MOCLDY    36  35  96 CALM      29.57R FOG
PLATTEVILLE    MOCLDY    36  36 100 SW6       29.57S VSB<1/4 WCI  31
$$

WIZ056-057-062-063-064-067-068-220800-
SOUTH CENTRAL WISCONSIN

CITY           SKY/WX    TMP DP  RH WIND       PRES   REMARKS
REEDSBURG      CLOUDY    38  38 100 SW3       29.55S FOG
BARABOO/DELLS  FOG       35  35  99 CALM      29.55S VSB 1/4
LONE ROCK      FOG       37  36  96 CALM      29.57S VSB 1/4
MINERAL POINT  FOG       41  41 100 SW3       29.55F VSB 1/4
MADISON        CLOUDY    40  39  97 CALM      29.57S FOG
MIDDLETON      CLOUDY    41  41 100 SW3       29.56S VSB 1/4
WATERTOWN      CLOUDY    38  38 100 CALM      29.56F FOG
MONROE         FOG       37  37 100 S6        29.56F VSB<1/4 WCI  33
JANESVILLE     FOG       39  39 100 CALM      29.57S VSB 1/4
$$

WIZ051-052-058>065-066-070>072-220800-
SOUTHEAST WISCONSIN

CITY           SKY/WX    TMP DP  RH WIND       PRES   REMARKS
MILWAUKEE      PTCLDY    42  39  89 SW5       29.57F
WAUKESHA       CLOUDY    37  37 100 S5        29.58S FOG     WCI  34
MILWAUKEE/TIMM PTCLDY    37  36  93 SW5       29.58S FOG     WCI  34
RACINE         MOCLDY    41  38  89 W3        29.60S
KENOSHA        FOG       37  36  96 W3        29.58S VSB 1/4
FOND DU LAC    CLOUDY    40  37  89 S5        29.56S
SHEBOYGAN      CLOUDY    38  37  97 S5        29.56S FOG     WCI  34
WEST BEND      CLOUDY    39  39 100 CALM      29.56F FOG
JUNEAU         FOG       37  37  99 S5        29.56F VSB 1/2 WCI  34
$$

LSZ147-162-220800-
LAKE SUPERIOR

STATION/POSITION TIME  TEMP    WIND        PRES    WAVE
                       AIR SEA DIR/SP/G            HT/PER
                 (UTC) (F)     (DEG/KT/KT) (MB)    (FT/S)
DEVILS ISLAND    0700   35      40/  9/ 10 1001.1R
PORT WING        0640   34     360/  4/  5 1001.4R
SAXON HARBOR     0640   33        CALM     1000.3R
$$

LMZ867-665-643>646-220800-
LAKE MICHIGAN

STATION/POSITION TIME  TEMP    WIND        PRES    WAVE
                       AIR SEA DIR/SP/G            HT/PER
                 (UTC) (F)     (DEG/KT/KT) (MB)    (FT/S)
NORTHPORT PIER   0640   38     230/  3/  8 1000.7S
SISTER BAY       0650   37        CALM       N/A
KEWAUNEE LAKESHO 0648           CALM  /  2 1000.9S
SHEBOYGAN LAKESH 0700   41     180/  7/  7 1001.3S
PORT WASHINGTON  0640   39     230/  1/  2 1002.7S
KENOSHA   LAKESH 0700   41      CALM  /  4 1002.0
$$

TC  - TEMPERATURE IN CELSIUS
VSB - VISIBILITY IN STATUTE MILES
WCI - WIND CHILL INDEX
HX  - HEAT INDEX





USA.gov is the U.S. government's official web portal to all federal, state and local government web resources and services.